カタログに戻る

TITAN 3C TRANSTAGE DEB

LostGEO
NORAD 38694·DEBRIS·🇺🇸 United States

打ち上げ Sep 26, 1968 から Cape Canaveral Space Force Station

Loading…

TLE

古いSource: Space-Track

元期: Apr 12, 2026, 08:23 UTC

1 38694U 68081U   26102.34978564 -.00000134  00000-0  00000-0 0  9999
2 38694   1.6808  69.1565 0083413  48.9686 312.1496  1.03485984 43383

AllMySatでTITAN 3C TRANSTAGE DEBをリアルタイム追跡

Download on the App Store